"Sample Date","Sample Time","Sample Value","Units","Flow Rate","Number Channels","Micron Size 0","Counts/Channel 0","Micron Size 1","Counts/Channel 1","Micron Size 2","Counts/Channel 2","Micron Size 3","Counts/Channel 3","Micron Size 4","Counts/Channel 4","Micron Size 5","Counts/Channel 5","Micron Size 6","Counts/Channel 6","Micron Size 7","Counts/Channel 7","Micron Size 8","Counts/Channel 8","Micron Size 9","Counts/Channel 9","Micron Size 10","Counts/Channel 10","Micron Size 11","Counts/Channel 11","Micron Size 12","Counts/Channel 12","Micron Size 13","Counts/Channel 13","Micron Size 14","Counts/Channel 14","Micron Size 15","Counts/Channel 15","Micron Size 16","Counts/Channel 16","Micron Size 17","Counts/Channel 17","Micron Size 18","Counts/Channel 18","Micron Size 19","Counts/Channel 19","Micron Size 20","Counts/Channel 20","Micron Size 21","Counts/Channel 21","Micron Size 22","Counts/Channel 22","Micron Size 23","Counts/Channel 23","Micron Size 24","Counts/Channel 24","Micron Size 25","Counts/Channel 25","Micron Size 26","Counts/Channel 26","Micron Size 27","Counts/Channel 27","Micron Size 28","Counts/Channel 28","Micron Size 29","Counts/Channel 29","Micron Size 30","Counts/Channel 30","Micron Size 31","Counts/Channel 31"
"05/07/08","15:00:04",606.000,"cc",28310.371,6,0.100,469.000,0.200,126.000,0.300,10.000,0.500,1.000,1.000,0,5.000,0
"05/07/08","15:00:10",536.000,"cc",28266.650,6,0.100,421.000,0.200,96.000,0.300,14.000,0.500,5.000,1.000,0,5.000,0
"05/07/08","15:00:16",525.000,"cc",28307.969,6,0.100,425.000,0.200,92.000,0.300,6.000,0.500,1.000,1.000,1.000,5.000,0
"05/07/08","15:00:22",492.000,"cc",28413.492,6,0.100,398.000,0.200,78.000,0.300,12.000,0.500,4.000,1.000,0,5.000,0
"05/07/08","15:00:28",567.000,"cc",28326.619,6,0.100,467.000,0.200,90.000,0.300,6.000,0.500,4.000,1.000,0,5.000,0
"05/07/08","15:00:34",560.000,"cc",28301.869,6,0.100,455.000,0.200,87.000,0.300,12.000,0.500,4.000,1.000,1.000,5.000,1.000
"05/07/08","15:00:40",535.000,"cc",28299.063,6,0.100,443.000,0.200,84.000,0.300,6.000,0.500,1.000,1.000,1.000,5.000,0
"05/07/08","15:00:46",515.000,"cc",28332.820,6,0.100,419.000,0.200,81.000,0.300,11.000,0.500,4.000,1.000,0,5.000,0
"05/07/08","15:00:52",549.000,"cc",28380.504,6,0.100,444.000,0.200,97.000,0.300,6.000,0.500,1.000,1.000,1.000,5.000,0
"05/07/08","15:00:58",511.000,"cc",28297.820,6,0.100,416.000,0.200,86.000,0.300,7.000,0.500,2.000,1.000,0,5.000,0
"05/07/08","15:01:04",539.000,"cc",28271.783,6,0.100,432.000,0.200,97.000,0.300,9.000,0.500,1.000,1.000,0,5.000,0
"05/07/08","15:01:10",554.000,"cc",28368.072,6,0.100,441.000,0.200,98.000,0.300,12.000,0.500,3.000,1.000,0,5.000,0
"05/07/08","15:01:16",588.000,"cc",28286.688,6,0.100,464.000,0.200,113.000,0.300,7.000,0.500,4.000,1.000,0,5.000,0
"05/07/08","15:01:22",545.000,"cc",28352.604,6,0.100,448.000,0.200,87.000,0.300,7.000,0.500,3.000,1.000,0,5.000,0
"05/07/08","15:01:28",565.000,"cc",28275.600,6,0.100,438.000,0.200,114.000,0.300,8.000,0.500,5.000,1.000,0,5.000,0
"05/07/08","15:01:34",580.000,"cc",28342.389,6,0.100,475.000,0.200,94.000,0.300,7.000,0.500,3.000,1.000,1.000,5.000,0
"05/07/08","15:01:40",578.000,"cc",28298.203,6,0.100,457.000,0.200,107.000,0.300,11.000,0.500,2.000,1.000,1.000,5.000,0
"05/07/08","15:01:46",549.000,"cc",28325.260,6,0.100,420.000,0.200,119.000,0.300,8.000,0.500,2.000,1.000,0,5.000,0
"05/07/08","15:01:52",568.000,"cc",28279.688,6,0.100,453.000,0.200,105.000,0.300,8.000,0.500,1.000,1.000,1.000,5.000,0
"05/07/08","15:01:58",582.000,"cc",28303.250,6,0.100,452.000,0.200,119.000,0.300,8.000,0.500,2.000,1.000,1.000,5.000,0
"05/07/08","15:02:04",624.000,"cc",28353.356,6,0.100,495.000,0.200,117.000,0.300,9.000,0.500,2.000,1.000,1.000,5.000,0
"05/07/08","15:02:10",570.000,"cc",28276.744,6,0.100,457.000,0.200,104.000,0.300,8.000,0.500,1.000,1.000,0,5.000,0
"05/07/08","15:02:16",606.000,"cc",28365.838,6,0.100,470.000,0.200,125.000,0.300,10.000,0.500,1.000,1.000,0,5.000,0
"05/07/08","15:02:22",549.000,"cc",28313.522,6,0.100,438.000,0.200,103.000,0.300,5.000,0.500,3.000,1.000,0,5.000,0
"05/07/08","15:02:28",584.000,"cc",28344.740,6,0.100,475.000,0.200,98.000,0.300,8.000,0.500,3.000,1.000,0,5.000,0
"05/07/08","15:02:34",591.000,"cc",28274.988,6,0.100,486.000,0.200,94.000,0.300,9.000,0.500,1.000,1.000,1.000,5.000,0
"05/07/08","15:02:40",605.000,"cc",28310.709,6,0.100,496.000,0.200,95.000,0.300,11.000,0.500,2.000,1.000,1.000,5.000,0
"05/07/08","15:02:46",582.000,"cc",28339.803,6,0.100,467.000,0.200,105.000,0.300,9.000,0.500,1.000,1.000,0,5.000,0
"05/07/08","15:02:52",563.000,"cc",28324.967,6,0.100,438.000,0.200,111.000,0.300,11.000,0.500,1.000,1.000,2.000,5.000,0
"05/07/08","15:02:58",597.000,"cc",28275.535,6,0.100,486.000,0.200,97.000,0.300,9.000,0.500,3.000,1.000,2.000,5.000,0
"05/07/08","15:03:04",541.000,"cc",28362.176,6,0.100,447.000,0.200,86.000,0.300,7.000,0.500,1.000,1.000,0,5.000,0
"05/07/08","15:03:10",573.000,"cc",28321.729,6,0.100,464.000,0.200,100.000,0.300,4.000,0.500,5.000,1.000,0,5.000,0
"05/07/08","15:03:16",580.000,"cc",28354.242,6,0.100,465.000,0.200,105.000,0.300,8.000,0.500,2.000,1.000,0,5.000,0
"05/07/08","15:03:22",580.000,"cc",28298.174,6,0.100,469.000,0.200,105.000,0.300,5.000,0.500,1.000,1.000,0,5.000,0
"05/07/08","15:03:28",570.000,"cc",28294.590,6,0.100,454.000,0.200,104.000,0.300,7.000,0.500,3.000,1.000,2.000,5.000,0
"05/07/08","15:03:34",583.000,"cc",28283.650,6,0.100,463.000,0.200,110.000,0.300,7.000,0.500,3.000,1.000,0,5.000,0
"05/07/08","15:03:40",614.000,"cc",28283.520,6,0.100,483.000,0.200,115.000,0.300,15.000,0.500,1.000,1.000,0,5.000,0
"05/07/08","15:03:46",560.000,"cc",28384.199,6,0.100,426.000,0.200,121.000,0.300,11.000,0.500,2.000,1.000,0,5.000,0
"05/07/08","15:03:52",586.000,"cc",28366.904,6,0.100,482.000,0.200,97.000,0.300,5.000,0.500,2.000,1.000,0,5.000,0
"05/07/08","15:03:58",575.000,"cc",28285.205,6,0.100,440.000,0.200,120.000,0.300,9.000,0.500,4.000,1.000,2.000,5.000,0
"05/07/08","15:04:04",574.000,"cc",28282.207,6,0.100,455.000,0.200,114.000,0.300,3.000,0.500,2.000,1.000,0,5.000,0
"05/07/08","15:04:10",550.000,"cc",28320.078,6,0.100,437.000,0.200,101.000,0.300,10.000,0.500,2.000,1.000,0,5.000,0
"05/07/08","15:04:16",572.000,"cc",28301.006,6,0.100,453.000,0.200,107.000,0.300,10.000,0.500,2.000,1.000,0,5.000,0
"05/07/08","15:04:22",626.000,"cc",28300.328,6,0.100,495.000,0.200,116.000,0.300,12.000,0.500,3.000,1.000,0,5.000,0
"05/07/08","15:04:28",605.000,"cc",28302.231,6,0.100,485.000,0.200,107.000,0.300,11.000,0.500,2.000,1.000,0,5.000,0
"05/07/08","15:04:34",595.000,"cc",28361.336,6,0.100,474.000,0.200,106.000,0.300,13.000,0.500,2.000,1.000,0,5.000,0
"05/07/08","15:04:40",576.000,"cc",28311.365,6,0.100,472.000,0.200,97.000,0.300,5.000,0.500,2.000,1.000,0,5.000,0
"05/07/08","15:04:46",621.000,"cc",28318.523,6,0.100,501.000,0.200,109.000,0.300,10.000,0.500,1.000,1.000,0,5.000,0
"05/07/08","15:04:52",576.000,"cc",28327.281,6,0.100,455.000,0.200,105.000,0.300,14.000,0.500,2.000,1.000,0,5.000,0
"05/07/08","15:04:58",628.000,"cc",28280.096,6,0.100,498.000,0.200,120.000,0.300,9.000,0.500,1.000,1.000,0,5.000,0
"05/07/08","15:05:04",565.000,"cc",28292.328,6,0.100,438.000,0.200,110.000,0.300,13.000,0.500,3.000,1.000,1.000,5.000,0
"05/07/08","15:05:10",612.000,"cc",28286.072,6,0.100,497.000,0.200,105.000,0.300,7.000,0.500,3.000,1.000,0,5.000,0
"05/07/08","15:05:16",606.000,"cc",28400.527,6,0.100,487.000,0.200,111.000,0.300,8.000,0.500,0,1.000,0,5.000,0
"05/07/08","15:05:22",642.000,"cc",28273.248,6,0.100,535.000,0.200,98.000,0.300,6.000,0.500,2.000,1.000,1.000,5.000,0
"05/07/08","15:05:28",648.000,"cc",28353.914,6,0.100,525.000,0.200,108.000,0.300,11.000,0.500,4.000,1.000,0,5.000,0
"05/07/08","15:05:34",621.000,"cc",28300.844,6,0.100,497.000,0.200,113.000,0.300,10.000,0.500,1.000,1.000,0,5.000,0
"05/07/08","15:05:40",650.000,"cc",28308.389,6,0.100,506.000,0.200,132.000,0.300,8.000,0.500,3.000,1.000,1.000,5.000,0
"05/07/08","15:05:46",667.000,"cc",28335.086,6,0.100,529.000,0.200,129.000,0.300,6.000,0.500,3.000,1.000,0,5.000,0
"05/07/08","15:05:52",636.000,"cc",28321.139,6,0.100,501.000,0.200,122.000,0.300,11.000,0.500,2.000,1.000,0,5.000,0
"05/07/08","15:05:58",648.000,"cc",28311.615,6,0.100,539.000,0.200,101.000,0.300,6.000,0.500,2.000,1.000,0,5.000,0
"05/07/08","15:06:04",632.000,"cc",28315.365,6,0.100,483.000,0.200,133.000,0.300,13.000,0.500,2.000,1.000,1.000,5.000,0
"05/07/08","15:06:10",616.000,"cc",28365.699,6,0.100,470.000,0.200,134.000,0.300,9.000,0.500,2.000,1.000,1.000,5.000,0
"05/07/08","15:06:16",650.000,"cc",28266.357,6,0.100,522.000,0.200,110.000,0.300,11.000,0.500,7.000,1.000,0,5.000,0
"05/07/08","15:06:22",574.000,"cc",28353.100,6,0.100,479.000,0.200,86.000,0.300,6.000,0.500,3.000,1.000,0,5.000,0
"05/07/08","15:06:28",628.000,"cc",28297.680,6,0.100,510.000,0.200,101.000,0.300,14.000,0.500,3.000,1.000,0,5.000,0
"05/07/08","15:06:34",608.000,"cc",28254.092,6,0.100,481.000,0.200,112.000,0.300,11.000,0.500,2.000,1.000,2.000,5.000,0
"05/07/08","15:06:40",646.000,"cc",28312.729,6,0.100,523.000,0.200,110.000,0.300,9.000,0.500,3.000,1.000,1.000,5.000,0
"05/07/08","15:06:46",647.000,"cc",28330.434,6,0.100,511.000,0.200,127.000,0.300,8.000,0.500,1.000,1.000,0,5.000,0
"05/07/08","15:06:52",641.000,"cc",28327.451,6,0.100,508.000,0.200,118.000,0.300,14.000,0.500,1.000,1.000,0,5.000,0
"05/07/08","15:06:58",669.000,"cc",28318.494,6,0.100,546.000,0.200,113.000,0.300,7.000,0.500,3.000,1.000,0,5.000,0
"05/07/08","15:07:04",664.000,"cc",28338.930,6,0.100,532.000,0.200,113.000,0.300,17.000,0.500,1.000,1.000,1.000,5.000,0
"05/07/08","15:07:10",642.000,"cc",28330.586,6,0.100,502.000,0.200,132.000,0.300,7.000,0.500,1.000,1.000,0,5.000,0
"05/07/08","15:07:16",629.000,"cc",28311.609,6,0.100,486.000,0.200,134.000,0.300,8.000,0.500,1.000,1.000,0,5.000,0
"05/07/08","15:07:22",590.000,"cc",28315.494,6,0.100,468.000,0.200,111.000,0.300,9.000,0.500,2.000,1.000,0,5.000,0
"05/07/08","15:07:28",619.000,"cc",28236.705,6,0.100,506.000,0.200,102.000,0.300,8.000,0.500,3.000,1.000,0,5.000,0
"05/07/08","15:07:34",689.000,"cc",28371.592,6,0.100,561.000,0.200,113.000,0.300,10.000,0.500,5.000,1.000,0,5.000,0
"05/07/08","15:07:40",650.000,"cc",28347.178,6,0.100,504.000,0.200,131.000,0.300,12.000,0.500,2.000,1.000,1.000,5.000,0
"05/07/08","15:07:46",668.000,"cc",28283.199,6,0.100,533.000,0.200,124.000,0.300,10.000,0.500,1.000,1.000,0,5.000,0
"05/07/08","15:07:52",627.000,"cc",28305.518,6,0.100,500.000,0.200,116.000,0.300,9.000,0.500,2.000,1.000,0,5.000,0
"05/07/08","15:07:58",629.000,"cc",28311.221,6,0.100,492.000,0.200,123.000,0.300,12.000,0.500,2.000,1.000,0,5.000,0
"05/07/08","15:08:04",636.000,"cc",28293.242,6,0.100,509.000,0.200,115.000,0.300,11.000,0.500,1.000,1.000,0,5.000,0
"05/07/08","15:08:10",637.000,"cc",28318.643,6,0.100,507.000,0.200,120.000,0.300,9.000,0.500,1.000,1.000,0,5.000,0
"05/07/08","15:08:16",613.000,"cc",28253.096,6,0.100,496.000,0.200,106.000,0.300,8.000,0.500,2.000,1.000,1.000,5.000,0
"05/07/08","15:08:22",566.000,"cc",28360.748,6,0.100,431.000,0.200,125.000,0.300,9.000,0.500,0,1.000,1.000,5.000,0
"05/07/08","15:08:28",582.000,"cc",28304.508,6,0.100,460.000,0.200,113.000,0.300,6.000,0.500,3.000,1.000,0,5.000,0
"05/07/08","15:08:34",633.000,"cc",28338.227,6,0.100,511.000,0.200,113.000,0.300,7.000,0.500,2.000,1.000,0,5.000,0
"05/07/08","15:08:40",650.000,"cc",28312.436,6,0.100,528.000,0.200,109.000,0.300,10.000,0.500,2.000,1.000,1.000,5.000,0
"05/07/08","15:08:46",596.000,"cc",28349.732,6,0.100,460.000,0.200,127.000,0.300,9.000,0.500,0,1.000,0,5.000,0
"05/07/08","15:08:52",597.000,"cc",28321.547,6,0.100,465.000,0.200,116.000,0.300,11.000,0.500,4.000,1.000,1.000,5.000,0
"05/07/08","15:08:58",609.000,"cc",28284.883,6,0.100,477.000,0.200,117.000,0.300,13.000,0.500,2.000,1.000,0,5.000,0
"05/07/08","15:09:04",600.000,"cc",28319.164,6,0.100,476.000,0.200,114.000,0.300,8.000,0.500,1.000,1.000,1.000,5.000,0
"05/07/08","15:09:10",625.000,"cc",28319.891,6,0.100,502.000,0.200,112.000,0.300,8.000,0.500,3.000,1.000,0,5.000,0
"05/07/08","15:09:16",648.000,"cc",28388.356,6,0.100,526.000,0.200,108.000,0.300,13.000,0.500,1.000,1.000,0,5.000,0
"05/07/08","15:09:22",625.000,"cc",28318.246,6,0.100,510.000,0.200,107.000,0.300,8.000,0.500,0,1.000,0,5.000,0
"05/07/08","15:09:28",632.000,"cc",28265.848,6,0.100,503.000,0.200,110.000,0.300,10.000,0.500,9.000,1.000,0,5.000,0
"05/07/08","15:09:34",693.000,"cc",28288.111,6,0.100,556.000,0.200,124.000,0.300,9.000,0.500,4.000,1.000,0,5.000,0
"05/07/08","15:09:40",652.000,"cc",28300.879,6,0.100,512.000,0.200,128.000,0.300,8.000,0.500,2.000,1.000,2.000,5.000,0
"05/07/08","15:09:46",635.000,"cc",28316.258,6,0.100,520.000,0.200,102.000,0.300,8.000,0.500,5.000,1.000,0,5.000,0
"05/07/08","15:09:52",669.000,"cc",28358.027,6,0.100,518.000,0.200,119.000,0.300,8.000,0.500,6.000,1.000,18.000,5.000,0
"05/07/08","15:09:58",2310.000,"cc",28281.373,6,0.100,995.000,0.200,341.000,0.300,182.000,0.500,222.000,1.000,566.000,5.000,4.000
"05/07/08","15:10:04",4620.000,"cc",28279.481,6,0.100,1744.000,0.200,668.000,0.300,395.000,0.500,531.000,1.000,1268.000,5.000,14.000
"05/07/08","15:10:10",5009.000,"cc",28269.576,6,0.100,1827.000,0.200,769.000,0.300,448.000,0.500,642.000,1.000,1311.000,5.000,12.000
"05/07/08","15:10:16",4838.000,"cc",28272.693,6,0.100,1723.000,0.200,644.000,0.300,435.000,0.500,617.000,1.000,1402.000,5.000,17.000
"05/07/08","15:10:22",5665.000,"cc",28354.477,6,0.100,2016.000,0.200,768.000,0.300,507.000,0.500,752.000,1.000,1606.000,5.000,16.000
"05/07/08","15:10:28",7111.000,"cc",28030.988,6,0.100,3224.000,0.200,1068.000,0.300,530.000,0.500,725.000,1.000,1512.000,5.000,52.000
"05/07/08","15:10:34",5599.000,"cc",26363.959,6,0.100,2052.000,0.200,772.000,0.300,556.000,0.500,726.000,1.000,1484.000,5.000,9.000
"05/07/08","15:10:40",6658.000,"cc",26879.039,6,0.100,2547.000,0.200,903.000,0.300,630.000,0.500,775.000,1.000,1787.000,5.000,16.000
"05/07/08","15:10:46",4725.000,"cc",26315.846,6,0.100,1854.000,0.200,661.000,0.300,430.000,0.500,549.000,1.000,1221.000,5.000,10.000
"05/07/08","15:10:52",4664.000,"cc",27367.313,6,0.100,1618.000,0.200,644.000,0.300,447.000,0.500,583.000,1.000,1359.000,5.000,13.000
"05/07/08","15:10:58",2945.000,"cc",28294.977,6,0.100,1206.000,0.200,452.000,0.300,227.000,0.500,308.000,1.000,748.000,5.000,4.000
"05/07/08","15:11:04",3192.000,"cc",28408.865,6,0.100,1324.000,0.200,440.000,0.300,267.000,0.500,358.000,1.000,795.000,5.000,8.000
"05/07/08","15:11:10",2585.000,"cc",28369.522,6,0.100,1052.000,0.200,361.000,0.300,223.000,0.500,284.000,1.000,658.000,5.000,7.000
"05/07/08","15:11:16",4223.000,"cc",28444.160,6,0.100,1501.000,0.200,575.000,0.300,371.000,0.500,568.000,1.000,1199.000,5.000,9.000
"05/07/08","15:11:22",5178.000,"cc",28442.455,6,0.100,1676.000,0.200,628.000,0.300,495.000,0.500,760.000,1.000,1602.000,5.000,17.000
"05/07/08","15:11:28",5196.000,"cc",27483.732,6,0.100,2302.000,0.200,756.000,0.300,441.000,0.500,515.000,1.000,1157.000,5.000,25.000
"05/07/08","15:11:34",4716.000,"cc",27036.395,6,0.100,1658.000,0.200,615.000,0.300,433.000,0.500,621.000,1.000,1378.000,5.000,11.000
"05/07/08","15:11:40",4704.000,"cc",27769.510,6,0.100,1637.000,0.200,628.000,0.300,460.000,0.500,647.000,1.000,1325.000,5.000,7.000
"05/07/08","15:11:46",3899.000,"cc",28263.787,6,0.100,1408.000,0.200,503.000,0.300,326.000,0.500,528.000,1.000,1122.000,5.000,12.000
"05/07/08","15:11:52",3363.000,"cc",28277.104,6,0.100,1268.000,0.200,488.000,0.300,287.000,0.500,411.000,1.000,905.000,5.000,4.000
"05/07/08","15:11:58",3900.000,"cc",27733.121,6,0.100,1640.000,0.200,561.000,0.300,349.000,0.500,416.000,1.000,926.000,5.000,8.000
"05/07/08","15:12:04",3108.000,"cc",28067.836,6,0.100,1162.000,0.200,406.000,0.300,296.000,0.500,363.000,1.000,869.000,5.000,12.000
"05/07/08","15:12:10",2489.000,"cc",28356.580,6,0.100,1068.000,0.200,386.000,0.300,205.000,0.500,279.000,1.000,546.000,5.000,5.000
"05/07/08","15:12:16",3137.000,"cc",28458.838,6,0.100,1152.000,0.200,454.000,0.300,267.000,0.500,386.000,1.000,872.000,5.000,6.000
"05/07/08","15:12:22",3048.000,"cc",28453.766,6,0.100,1241.000,0.200,401.000,0.300,263.000,0.500,349.000,1.000,784.000,5.000,10.000
"05/07/08","15:12:28",2388.000,"cc",28483.719,6,0.100,1049.000,0.200,342.000,0.300,199.000,0.500,242.000,1.000,551.000,5.000,5.000
"05/07/08","15:12:34",984.000,"cc",28447.705,6,0.100,629.000,0.200,182.000,0.300,41.000,0.500,36.000,1.000,95.000,5.000,1.000
"05/07/08","15:12:40",1381.000,"cc",28422.969,6,0.100,731.000,0.200,209.000,0.300,67.000,0.500,131.000,1.000,241.000,5.000,2.000
"05/07/08","15:12:46",3901.000,"cc",28414.000,6,0.100,1353.000,0.200,573.000,0.300,380.000,0.500,521.000,1.000,1066.000,5.000,8.000
"05/07/08","15:12:52",2761.000,"cc",28425.916,6,0.100,1100.000,0.200,406.000,0.300,237.000,0.500,325.000,1.000,690.000,5.000,3.000
"05/07/08","15:12:58",4758.000,"cc",28464.703,6,0.100,1601.000,0.200,696.000,0.300,437.000,0.500,600.000,1.000,1415.000,5.000,9.000
"05/07/08","15:13:04",4863.000,"cc",28429.400,6,0.100,1654.000,0.200,635.000,0.300,422.000,0.500,649.000,1.000,1494.000,5.000,9.000
"05/07/08","15:13:10",2526.000,"cc",28505.631,6,0.100,1018.000,0.200,379.000,0.300,237.000,0.500,289.000,1.000,602.000,5.000,1.000
"05/07/08","15:13:16",1750.000,"cc",28425.602,6,0.100,834.000,0.200,295.000,0.300,125.000,0.500,154.000,1.000,340.000,5.000,2.000
"05/07/08","15:13:22",1597.000,"cc",28471.781,6,0.100,774.000,0.200,225.000,0.300,116.000,0.500,170.000,1.000,308.000,5.000,4.000
"05/07/08","15:13:28",3147.000,"cc",28443.838,6,0.100,1215.000,0.200,460.000,0.300,297.000,0.500,332.000,1.000,841.000,5.000,2.000
"05/07/08","15:13:34",1299.000,"cc",28470.281,6,0.100,747.000,0.200,187.000,0.300,80.000,0.500,73.000,1.000,209.000,5.000,3.000
"05/07/08","15:13:40",1970.000,"cc",28416.889,6,0.100,926.000,0.200,295.000,0.300,150.000,0.500,189.000,1.000,406.000,5.000,4.000
"05/07/08","15:13:46",778.000,"cc",28457.049,6,0.100,550.000,0.200,141.000,0.300,23.000,0.500,19.000,1.000,45.000,5.000,0
"05/07/08","15:13:52",8799.000,"cc",27475.035,6,0.100,5607.000,0.200,1472.000,0.300,622.000,0.500,525.000,1.000,487.000,5.000,86.000
"05/07/08","15:13:58",1385.000,"cc",26286.633,6,0.100,942.000,0.200,248.000,0.300,63.000,0.500,64.000,1.000,68.000,5.000,0
"05/07/08","15:14:04",1123.000,"cc",26805.971,6,0.100,703.000,0.200,207.000,0.300,48.000,0.500,55.000,1.000,109.000,5.000,1.000
"05/07/08","15:14:10",6715.000,"cc",26647.918,6,0.100,5230.000,0.200,652.000,0.300,286.000,0.500,262.000,1.000,274.000,5.000,11.000
"05/07/08","15:14:16",1059.000,"cc",26327.088,6,0.100,807.000,0.200,193.000,0.300,35.000,0.500,15.000,1.000,9.000,5.000,0
"05/07/08","15:14:22",823.000,"cc",26689.977,6,0.100,618.000,0.200,167.000,0.300,31.000,0.500,5.000,1.000,2.000,5.000,0
"05/07/08","15:14:28",901.000,"cc",26994.061,6,0.100,632.000,0.200,164.000,0.300,24.000,0.500,17.000,1.000,64.000,5.000,0
"05/07/08","15:14:34",756.000,"cc",26988.527,6,0.100,587.000,0.200,152.000,0.300,11.000,0.500,4.000,1.000,2.000,5.000,0
"05/07/08","15:14:40",766.000,"cc",26909.313,6,0.100,587.000,0.200,138.000,0.300,17.000,0.500,5.000,1.000,19.000,5.000,0
"05/07/08","15:14:46",4610.000,"cc",26278.910,6,0.100,3299.000,0.200,863.000,0.300,186.000,0.500,118.000,1.000,79.000,5.000,65.000
"05/07/08","15:14:52",891.000,"cc",26396.176,6,0.100,678.000,0.200,175.000,0.300,24.000,0.500,13.000,1.000,1.000,5.000,0
"05/07/08","15:14:58",786.000,"cc",26813.924,6,0.100,613.000,0.200,156.000,0.300,12.000,0.500,5.000,1.000,0,5.000,0
"05/07/08","15:15:04",749.000,"cc",26922.639,6,0.100,572.000,0.200,155.000,0.300,17.000,0.500,4.000,1.000,1.000,5.000,0
"05/07/08","15:15:10",767.000,"cc",26912.750,6,0.100,611.000,0.200,138.000,0.300,16.000,0.500,2.000,1.000,0,5.000,0
"05/07/08","15:15:13",343.000,"cc",26847.016,6,0.100,275.000,0.200,63.000,0.300,4.000,0.500,1.000,1.000,0,5.000,0
"05/07/08","15:16:24",6816.000,"cc",27432.156,6,0.100,2412.000,0.200,1090.000,0.300,609.000,0.500,875.000,1.000,1816.000,5.000,14.000
"05/07/08","15:16:30",6006.000,"cc",27803.445,6,0.100,2172.000,0.200,872.000,0.300,518.000,0.500,771.000,1.000,1662.000,5.000,11.000
"05/07/08","15:16:36",6690.000,"cc",28322.832,6,0.100,2221.000,0.200,972.000,0.300,638.000,0.500,848.000,1.000,1991.000,5.000,20.000
"05/07/08","15:16:42",5589.000,"cc",28621.627,6,0.100,1923.000,0.200,800.000,0.300,511.000,0.500,675.000,1.000,1667.000,5.000,13.000
"05/07/08","15:16:48",4929.000,"cc",28575.926,6,0.100,1796.000,0.200,776.000,0.300,436.000,0.500,570.000,1.000,1339.000,5.000,12.000
"05/07/08","15:16:54",5891.000,"cc",28688.992,6,0.100,1903.000,0.200,825.000,0.300,567.000,0.500,806.000,1.000,1777.000,5.000,13.000
"05/07/08","15:17:00",5690.000,"cc",28617.875,6,0.100,1919.000,0.200,829.000,0.300,515.000,0.500,740.000,1.000,1669.000,5.000,18.000
"05/07/08","15:17:06",5022.000,"cc",28626.131,6,0.100,1692.000,0.200,685.000,0.300,462.000,0.500,696.000,1.000,1464.000,5.000,23.000
"05/07/08","15:17:12",2607.000,"cc",28559.150,6,0.100,1131.000,0.200,376.000,0.300,183.000,0.500,270.000,1.000,641.000,5.000,6.000
"05/07/08","15:17:18",1879.000,"cc",28523.279,6,0.100,932.000,0.200,309.000,0.300,124.000,0.500,160.000,1.000,351.000,5.000,3.000
"05/07/08","15:17:24",1281.000,"cc",28587.436,6,0.100,778.000,0.200,209.000,0.300,62.000,0.500,55.000,1.000,173.000,5.000,4.000
"05/07/08","15:17:30",1007.000,"cc",28590.838,6,0.100,690.000,0.200,160.000,0.300,28.000,0.500,44.000,1.000,84.000,5.000,1.000
"05/07/08","15:17:36",814.000,"cc",28438.920,6,0.100,590.000,0.200,145.000,0.300,25.000,0.500,20.000,1.000,34.000,5.000,0
"05/07/08","15:17:42",1653.000,"cc",28377.754,6,0.100,873.000,0.200,252.000,0.300,86.000,0.500,124.000,1.000,311.000,5.000,7.000
"05/07/08","15:17:48",981.000,"cc",28355.176,6,0.100,660.000,0.200,175.000,0.300,31.000,0.500,39.000,1.000,75.000,5.000,1.000
"05/07/08","15:17:54",928.000,"cc",28306.797,6,0.100,647.000,0.200,168.000,0.300,27.000,0.500,24.000,1.000,62.000,5.000,0
"05/07/08","15:18:00",10475.000,"cc",27114.447,6,0.100,8461.000,0.200,1192.000,0.300,382.000,0.500,262.000,1.000,143.000,5.000,35.000
"05/07/08","15:18:06",3340.000,"cc",26807.377,6,0.100,2081.000,0.200,644.000,0.300,264.000,0.500,245.000,1.000,104.000,5.000,2.000
"05/07/08","15:18:12",992.000,"cc",27121.324,6,0.100,723.000,0.200,203.000,0.300,41.000,0.500,15.000,1.000,10.000,5.000,0
"05/07/08","15:18:18",776.000,"cc",27145.178,6,0.100,585.000,0.200,161.000,0.300,12.000,0.500,14.000,1.000,4.000,5.000,0
"05/07/08","15:18:24",773.000,"cc",27064.904,6,0.100,570.000,0.200,185.000,0.300,12.000,0.500,6.000,1.000,0,5.000,0
"05/07/08","15:18:30",728.000,"cc",27039.721,6,0.100,572.000,0.200,139.000,0.300,12.000,0.500,5.000,1.000,0,5.000,0
"05/07/08","15:18:36",732.000,"cc",27064.322,6,0.100,559.000,0.200,159.000,0.300,13.000,0.500,1.000,1.000,0,5.000,0
"05/07/08","15:18:42",780.000,"cc",27128.996,6,0.100,616.000,0.200,147.000,0.300,16.000,0.500,1.000,1.000,0,5.000,0
"05/07/08","15:18:48",759.000,"cc",27083.270,6,0.100,612.000,0.200,131.000,0.300,12.000,0.500,3.000,1.000,1.000,5.000,0
"05/07/08","15:18:54",823.000,"cc",27200.324,6,0.100,671.000,0.200,139.000,0.300,11.000,0.500,2.000,1.000,0,5.000,0
"05/07/08","15:19:00",794.000,"cc",27096.584,6,0.100,621.000,0.200,152.000,0.300,14.000,0.500,4.000,1.000,3.000,5.000,0
"05/07/08","15:19:06",785.000,"cc",27064.254,6,0.100,623.000,0.200,145.000,0.300,16.000,0.500,1.000,1.000,0,5.000,0
"05/07/08","15:19:12",810.000,"cc",27209.709,6,0.100,659.000,0.200,147.000,0.300,3.000,0.500,0,1.000,1.000,5.000,0
"05/07/08","15:19:18",770.000,"cc",27362.631,6,0.100,614.000,0.200,142.000,0.300,11.000,0.500,3.000,1.000,0,5.000,0
"05/07/08","15:19:24",808.000,"cc",27492.799,6,0.100,649.000,0.200,145.000,0.300,11.000,0.500,2.000,1.000,1.000,5.000,0
"05/07/08","15:19:30",799.000,"cc",27630.143,6,0.100,637.000,0.200,146.000,0.300,12.000,0.500,4.000,1.000,0,5.000,0